Weather Roundup
Issued by NWS Corpus Christi, TX

Home | Current Version | Previous Version | Text Only | Print | Product List | Glossary On
Versions: 1 2 3 4 5 6 7 8 9 10 11 12 13 14 15 16 17 18 19 20 21 22 23 24 25 26 27 28 29 30 31 32 33 34 35 36 37 38 39 40 41 42 43 44 45 46 47 48 49 50
000
ASUS44 KCRP 250410
HRRCRP

SOUTH TEXAS REGIONAL WEATHER ROUNDUP
NATIONAL WEATHER SERVICE CORPUS CHRISTI TX
1100 PM CDT FRI MAR 24 2017


TXZ229>244-250500-
...CORPUS CHRISTI AREA OBSERVATIONS...

CITY           SKY/WX    TMP DP  RH WIND       PRES   REMARKS
CORPUS CHRISTI PTCLDY    73  70  90 S16       29.96R
NAS CORPUS CHR MOCLDY   N/A N/A N/A S17G26    29.96R
ROCKPORT       CLOUDY    73  69  87 S13G18    29.96R FOG
KINGSVILLE NAS CLEAR     73  71  93 S10       29.96R
ALICE          CLEAR     69  66  90 SE5       29.96R
ORANGE GROVE   CLEAR     72  68  87 S7        29.97R
FALFURRIAS     CLEAR     73  62  68 SE5       29.96R
$$

...VICTORIA AREA OBSERVATIONS...

CITY           SKY/WX    TMP DP  RH WIND       PRES   REMARKS
VICTORIA       CLOUDY    72  69  90 S12       29.97R
BEEVILLE       FAIR      73  73 100 S9        29.97R
PLEASANTON     CLEAR     63  58  85 CALM      29.96R
SAN ANTONIO    CLEAR     63  44  50 NW5       29.96R
$$

...LAREDO AREA OBSERVATIONS...

CITY           SKY/WX    TMP DP  RH WIND       PRES   REMARKS
LAREDO         CLEAR     75  63  66 E9        29.96R
COTULLA        CLEAR     70  59  68 E5        29.95R
DEL RIO        CLEAR     64  37  36 CALM      29.96R
MCALLEN        CLEAR     76  69  79 SE16      29.97R
HEBBRONVILLE   CLEAR     72  64  76 S8        29.98R
$$

...OTHER TEXAS OBSERVATIONS...

CITY           SKY/WX    TMP DP  RH WIND       PRES   REMARKS
BROWNSVILLE    MOCLDY    74  71  91 S13       29.99R
HOUSTON        TSTM      67  61  81 N10G51    29.95S VSB 1/2
COL. STATION   CLEAR     68  65  90 S13       29.92S
AUSTIN         CLEAR     67  61  81 SW7       29.94R
WACO           CLEAR     61  55  81 S9        29.88R
FORT WORTH     PTCLDY    73  38  27 W17       29.83R
WICHITA FALLS  CLEAR     60  43  53 W22G36    29.86R
LUBBOCK        CLEAR     48  35  60 N23G33    30.06R
EL PASO        CLEAR     67  18  15 NW14      30.11R
$$

...MARINE OBSERVATIONS...

STATION/POSITION TIME  SKY/WX   TEMP    WIND        PRES    VSBY  WAVE   SWELL
                                AIR SEA DIR/SP/G                  HT/PER HT/PER
                 (UTC)          (F)     (DEG/KT/KT) (MB)    (MI)  (FT/S) (FT/S)
PORT ARANSAS     0400            71 71  160/ 15/ 16 1014.6R
BUOY 90 E PORT A 0350            74 72  160/ 19/ 23 1015.5R         8/ 8   5/ 8
BUOY 45 SE BAFFI 0350            73     160/ 14/ 17 1014.4R         8/ 8   7/ 8
BUOY 200 E PT IS 0350            76 76  150/ 19/ 23 1016.7S         8/ 8
BUOY 15 E GALVES 0350            72 70  170/ 19/ 23 1014.7R         6/ 8   3/ 8
$$




USA.gov is the U.S. government's official web portal to all federal, state and local government web resources and services.